Guangchuan 02

operational
NORAD ID: 62112 Int'l Des: 2024-221 Owner: HONGQ Country: CN
LEOCIRCULAR

About Guangchuan 02

Description loading...

Live Position

Loading 3D Globe...

Upcoming Passes

Altitude History

Altitude vs Time

uPlot chart will show altitude changes over time

Two-Line Element Set

1 62112U 24221B 26063.19642194 .00006346 00000-0 33306-3 0 9993
2 62112 49.9432 313.1165 0006751 283.4468 76.5731 15.16864642 70266
Epoch: Mar 4, 2026 • Age: 17 hours

Current Status

Altitude 520.7 km
Velocity 7.60 km/s
Sub-Earth Point -24.52°S, 99.91°E
Launch Date Nov 27, 2024
Age 1.2 years
Type other

Technical Details

Classification Payload
Mass 500.00 kg
Dry Mass 500.00 kg
Total Mass 500.00 kg
Length 0.50 m
Diameter 1.80 m
Span 6.00 m
Shape Box + 2 pan
Manufacturer CAST
Bus Type HQ
Phase Status In Orbit
Owner/State HONGQ/CN

Large Constellations

Loading constellations...